Time,TemperatureF,DewpointF,PressureIn,WindDirection,WindDirectionDegrees,WindSpeedMPH,WindSpeedGustMPH,Humidity,HourlyPrecipIn,Conditions,Clouds,dailyrainin,SoftwareType,DateUTC
2013-08-13 00:02:00,73.9,71.4,30.00,South,180,0.0,0.0,92,0.00,,---,0.00,VWS V14.01,2013-08-13 05:02:00,
2013-08-13 00:07:00,73.9,71.1,30.00,South,180,0.0,0.0,91,0.00,,---,0.00,VWS V14.01,2013-08-13 05:07:00,
2013-08-13 00:12:00,73.9,71.1,30.00,South,180,0.0,0.0,91,0.00,,---,0.00,VWS V14.01,2013-08-13 05:12:00,
2013-08-13 00:17:00,73.9,71.1,30.00,South,180,0.0,0.0,91,0.00,,---,0.00,VWS V14.01,2013-08-13 05:17:00,
2013-08-13 00:22:00,73.9,71.1,30.00,South,180,0.0,0.0,91,0.00,,---,0.00,VWS V14.01,2013-08-13 05:22:00,
2013-08-13 00:27:00,73.9,71.1,30.00,South,180,0.0,0.0,91,0.00,,---,0.00,VWS V14.01,2013-08-13 05:27:00,
2013-08-13 00:32:00,73.7,70.9,30.00,SSE,158,0.0,0.0,91,0.00,,---,0.00,VWS V14.01,2013-08-13 05:32:00,
2013-08-13 00:37:00,73.7,70.9,30.00,SE,135,0.0,0.0,91,0.00,,---,0.00,VWS V14.01,2013-08-13 05:37:00,
2013-08-13 00:42:00,73.7,70.9,30.00,SE,135,0.0,0.0,91,0.00,,---,0.00,VWS V14.01,2013-08-13 05:42:00,
2013-08-13 00:47:00,73.7,70.9,30.00,SE,135,0.0,0.0,91,0.00,,---,0.00,VWS V14.01,2013-08-13 05:47:00,
2013-08-13 00:52:00,73.7,71.2,30.00,SE,135,0.0,0.0,92,0.00,,---,0.00,VWS V14.01,2013-08-13 05:52:00,
2013-08-13 00:57:00,73.7,71.2,29.97,SSE,158,0.0,0.0,92,0.00,,---,0.00,VWS V14.01,2013-08-13 05:57:00,
2013-08-13 01:02:00,73.7,71.2,29.97,SE,135,0.0,0.0,92,0.00,,---,0.00,VWS V14.01,2013-08-13 06:02:00,
2013-08-13 01:07:00,73.7,71.2,29.97,SE,135,0.0,0.0,92,0.00,,---,0.00,VWS V14.01,2013-08-13 06:07:00,
2013-08-13 01:12:00,73.7,71.2,29.97,SSE,158,0.0,0.0,92,0.00,,---,0.00,VWS V14.01,2013-08-13 06:12:00,
2013-08-13 01:17:00,73.5,71.0,29.97,SSE,158,0.0,0.0,92,0.00,,---,0.00,VWS V14.01,2013-08-13 06:17:00,
2013-08-13 01:22:00,73.5,71.0,29.97,SSE,158,0.0,0.0,92,0.00,,---,0.00,VWS V14.01,2013-08-13 06:22:00,
2013-08-13 01:27:00,73.5,71.0,29.97,SSE,158,0.0,0.0,92,0.00,,---,0.00,VWS V14.01,2013-08-13 06:27:00,
2013-08-13 01:32:00,73.5,71.4,29.97,SE,135,0.0,0.0,93,0.00,,---,0.00,VWS V14.01,2013-08-13 06:32:00,
2013-08-13 01:37:00,73.5,71.0,29.97,SE,135,0.0,0.0,92,0.00,,---,0.00,VWS V14.01,2013-08-13 06:37:00,
2013-08-13 01:42:00,73.5,71.0,29.97,SE,135,0.0,0.0,92,0.00,,---,0.00,VWS V14.01,2013-08-13 06:42:00,
2013-08-13 01:47:00,73.5,71.0,29.97,SE,135,0.0,0.0,92,0.00,,---,0.00,VWS V14.01,2013-08-13 06:47:00,
2013-08-13 01:52:00,73.5,71.0,29.97,SE,135,0.0,0.0,92,0.00,,---,0.00,VWS V14.01,2013-08-13 06:52:00,
2013-08-13 01:57:00,73.5,71.4,29.94,SE,135,0.0,0.0,93,0.00,,---,0.00,VWS V14.01,2013-08-13 06:57:00,
2013-08-13 02:02:00,73.5,71.4,29.94,SE,135,0.0,0.0,93,0.00,,---,0.00,VWS V14.01,2013-08-13 07:02:00,
2013-08-13 02:07:00,73.5,71.4,29.94,SE,135,0.0,0.0,93,0.00,,---,0.00,VWS V14.01,2013-08-13 07:07:00,
2013-08-13 02:12:00,73.3,71.2,29.97,SE,135,0.0,0.0,93,0.00,,---,0.00,VWS V14.01,2013-08-13 07:12:00,
2013-08-13 02:17:00,73.3,71.2,29.97,SE,135,0.0,0.0,93,0.00,,---,0.00,VWS V14.01,2013-08-13 07:17:00,
2013-08-13 02:22:00,73.3,71.2,29.97,SE,135,0.0,0.0,93,0.00,,---,0.00,VWS V14.01,2013-08-13 07:22:00,
2013-08-13 02:27:00,73.1,71.0,29.97,SE,135,0.0,0.0,93,0.00,,---,0.00,VWS V14.01,2013-08-13 07:27:00,
2013-08-13 02:32:00,73.1,71.0,29.97,SE,135,0.0,0.0,93,0.00,,---,0.00,VWS V14.01,2013-08-13 07:32:00,
2013-08-13 02:37:00,73.1,71.0,29.97,SE,135,0.0,0.0,93,0.00,,---,0.00,VWS V14.01,2013-08-13 07:37:00,
2013-08-13 02:42:00,73.1,71.3,29.94,SE,135,0.0,0.0,94,0.00,,---,0.00,VWS V14.01,2013-08-13 07:42:00,
2013-08-13 02:47:00,73.1,71.3,29.94,SE,135,0.0,0.0,94,0.00,,---,0.00,VWS V14.01,2013-08-13 07:47:00,
2013-08-13 02:52:00,73.1,71.3,29.94,SE,135,0.0,0.0,94,0.00,,---,0.00,VWS V14.01,2013-08-13 07:52:00,
2013-08-13 02:58:00,73.0,70.8,29.94,SE,135,0.0,0.0,93,0.00,,---,0.00,VWS V14.01,2013-08-13 07:58:00,
2013-08-13 03:03:00,73.0,71.1,29.94,SE,135,0.0,0.0,94,0.00,,---,0.00,VWS V14.01,2013-08-13 08:03:00,
2013-08-13 03:08:00,73.0,71.1,29.94,SE,135,0.0,0.0,94,0.00,,---,0.00,VWS V14.01,2013-08-13 08:08:00,
2013-08-13 03:13:00,73.0,71.1,29.94,SE,135,0.0,0.0,94,0.00,,---,0.00,VWS V14.01,2013-08-13 08:13:00,
2013-08-13 03:18:00,73.0,71.1,29.94,SE,135,0.0,0.0,94,0.00,,---,0.00,VWS V14.01,2013-08-13 08:18:00,
2013-08-13 03:23:00,72.8,71.0,29.94,SSE,158,0.0,0.0,94,0.00,,---,0.00,VWS V14.01,2013-08-13 08:23:00,
2013-08-13 03:28:00,72.8,71.0,29.94,SSE,158,0.0,0.0,94,0.00,,---,0.00,VWS V14.01,2013-08-13 08:28:00,
2013-08-13 03:33:00,72.8,71.0,29.94,SSE,158,0.0,0.0,94,0.00,,---,0.00,VWS V14.01,2013-08-13 08:33:00,
2013-08-13 03:38:00,73.0,71.1,29.94,SSE,158,0.0,0.0,94,0.00,,---,0.00,VWS V14.01,2013-08-13 08:38:00,
2013-08-13 03:43:00,73.0,71.1,29.94,SSE,158,0.0,0.0,94,0.00,,---,0.00,VWS V14.01,2013-08-13 08:43:00,
2013-08-13 03:48:00,73.0,71.1,29.94,SE,135,0.0,0.0,94,0.00,,---,0.00,VWS V14.01,2013-08-13 08:48:00,
2013-08-13 03:53:00,73.0,71.1,29.94,SE,135,0.0,0.0,94,0.00,,---,0.00,VWS V14.01,2013-08-13 08:53:00,
2013-08-13 03:58:00,73.0,71.1,29.94,SE,135,0.0,0.0,94,0.00,,---,0.00,VWS V14.01,2013-08-13 08:58:00,
2013-08-13 04:03:00,73.0,71.1,29.94,SE,135,0.0,0.0,94,0.00,,---,0.00,VWS V14.01,2013-08-13 09:03:00,
2013-08-13 04:08:00,73.0,71.4,29.94,SSE,158,0.0,0.0,95,0.00,,---,0.00,VWS V14.01,2013-08-13 09:08:00,
2013-08-13 04:13:00,72.8,71.0,29.94,SSE,158,0.0,0.0,94,0.00,,---,0.00,VWS V14.01,2013-08-13 09:13:00,
2013-08-13 04:18:00,72.8,71.0,29.94,SSE,158,0.0,0.0,94,0.00,,---,0.00,VWS V14.01,2013-08-13 09:18:00,
2013-08-13 04:23:00,72.8,71.0,29.94,SSE,158,0.0,0.0,94,0.00,,---,0.00,VWS V14.01,2013-08-13 09:23:00,
2013-08-13 04:28:00,72.6,70.8,29.94,SSE,158,0.0,0.0,94,0.00,,---,0.00,VWS V14.01,2013-08-13 09:28:00,
2013-08-13 04:33:00,72.6,71.1,29.94,SSE,158,0.0,0.0,95,0.00,,---,0.00,VWS V14.01,2013-08-13 09:33:00,
2013-08-13 04:38:00,72.6,71.1,29.94,SSE,158,0.0,0.0,95,0.00,,---,0.00,VWS V14.01,2013-08-13 09:38:00,
2013-08-13 04:43:00,72.6,71.1,29.94,SSE,158,0.0,0.0,95,0.00,,---,0.00,VWS V14.01,2013-08-13 09:43:00,
2013-08-13 04:48:00,72.6,71.1,29.94,SSE,158,0.0,0.0,95,0.00,,---,0.00,VWS V14.01,2013-08-13 09:48:00,
2013-08-13 04:53:00,72.6,71.1,29.94,SSE,158,0.0,0.0,95,0.00,,---,0.00,VWS V14.01,2013-08-13 09:53:00,
2013-08-13 04:58:00,72.6,71.1,29.94,SE,135,0.0,0.0,95,0.00,,---,0.00,VWS V14.01,2013-08-13 09:58:00,
2013-08-13 05:03:00,72.6,71.1,29.94,SSE,158,0.0,0.0,95,0.00,,---,0.00,VWS V14.01,2013-08-13 10:03:00,
2013-08-13 05:08:00,72.6,71.1,29.94,SSE,158,0.0,0.0,95,0.00,,---,0.00,VWS V14.01,2013-08-13 10:08:00,
2013-08-13 05:13:00,72.6,71.1,29.94,SSE,158,0.0,0.0,95,0.00,,---,0.00,VWS V14.01,2013-08-13 10:13:00,
2013-08-13 05:18:00,72.6,71.1,29.94,SE,135,0.0,0.0,95,0.00,,---,0.00,VWS V14.01,2013-08-13 10:18:00,
2013-08-13 05:23:00,72.6,71.1,29.94,SE,135,0.0,0.0,95,0.00,,---,0.00,VWS V14.01,2013-08-13 10:23:00,
2013-08-13 05:28:00,72.6,71.1,29.94,SE,135,0.0,0.0,95,0.00,,---,0.00,VWS V14.01,2013-08-13 10:28:00,
2013-08-13 05:33:00,72.6,71.1,29.94,SE,135,0.0,0.0,95,0.00,,---,0.00,VWS V14.01,2013-08-13 10:33:00,
2013-08-13 05:38:00,72.6,71.1,29.94,SE,135,0.0,0.0,95,0.00,,---,0.00,VWS V14.01,2013-08-13 10:38:00,
2013-08-13 05:43:00,72.6,71.1,29.94,SE,135,0.0,0.0,95,0.00,,---,0.00,VWS V14.01,2013-08-13 10:43:00,
2013-08-13 05:48:00,72.4,70.9,29.94,SE,135,0.0,0.0,95,0.00,,---,0.00,VWS V14.01,2013-08-13 10:48:00,
2013-08-13 05:53:00,72.4,71.2,29.97,SE,135,0.0,0.0,96,0.00,,---,0.00,VWS V14.01,2013-08-13 10:53:00,
2013-08-13 05:58:00,72.6,71.1,29.97,SE,135,0.0,0.0,95,0.00,,---,0.00,VWS V14.01,2013-08-13 10:58:00,
2013-08-13 06:03:00,72.6,71.1,29.97,SE,135,0.0,0.0,95,0.00,,---,0.00,VWS V14.01,2013-08-13 11:03:00,
2013-08-13 06:08:00,72.6,71.1,29.97,SE,135,0.0,0.0,95,0.00,,---,0.00,VWS V14.01,2013-08-13 11:08:00,
2013-08-13 06:13:00,72.6,71.1,29.97,SSE,158,0.0,0.0,95,0.00,,---,0.00,VWS V14.01,2013-08-13 11:13:00,
2013-08-13 06:18:00,72.6,71.4,29.97,SSE,158,0.0,0.0,96,0.00,,---,0.00,VWS V14.01,2013-08-13 11:18:00,
2013-08-13 06:23:00,72.6,71.1,29.97,SSE,158,0.0,0.0,95,0.00,,---,0.00,VWS V14.01,2013-08-13 11:23:00,
2013-08-13 06:28:00,72.6,71.4,29.97,SSE,158,0.0,0.0,96,0.00,,---,0.00,VWS V14.01,2013-08-13 11:28:00,
2013-08-13 06:33:00,72.6,71.4,29.97,SSE,158,0.0,0.0,96,0.00,,---,0.00,VWS V14.01,2013-08-13 11:33:00,
2013-08-13 06:38:00,72.8,71.6,29.97,SSE,158,0.0,0.0,96,0.00,,---,0.00,VWS V14.01,2013-08-13 11:38:00,
2013-08-13 06:43:00,72.8,71.6,29.97,SSE,158,0.0,0.0,96,0.00,,---,0.00,VWS V14.01,2013-08-13 11:43:00,
2013-08-13 06:48:00,72.8,71.6,29.97,SSE,158,0.0,0.0,96,0.00,,---,0.00,VWS V14.01,2013-08-13 11:48:00,
2013-08-13 06:53:00,72.8,71.6,29.97,SSE,158,0.0,0.0,96,0.00,,---,0.00,VWS V14.01,2013-08-13 11:53:00,
2013-08-13 06:58:00,73.0,71.8,29.97,SSE,158,0.0,0.0,96,0.00,,---,0.00,VWS V14.01,2013-08-13 11:58:00,
2013-08-13 07:03:00,73.0,71.8,29.97,South,180,0.0,0.0,96,0.00,,---,0.00,VWS V14.01,2013-08-13 12:03:00,
2013-08-13 07:09:00,73.1,71.9,29.97,South,180,0.0,0.0,96,0.00,,---,0.00,VWS V14.01,2013-08-13 12:09:00,
2013-08-13 07:14:00,73.3,72.1,29.97,South,180,0.0,0.0,96,0.00,,---,0.00,VWS V14.01,2013-08-13 12:14:00,
2013-08-13 07:19:00,73.3,72.1,29.97,SSW,202,0.0,0.0,96,0.00,,---,0.00,VWS V14.01,2013-08-13 12:19:00,
2013-08-13 07:24:00,73.7,72.5,29.97,SSW,202,0.0,0.0,96,0.00,,---,0.00,VWS V14.01,2013-08-13 12:24:00,
2013-08-13 07:29:00,73.9,72.7,29.97,SSE,158,0.0,0.0,96,0.00,,---,0.00,VWS V14.01,2013-08-13 12:29:00,
2013-08-13 07:34:00,74.0,72.8,29.97,ESE,112,0.0,0.0,96,0.00,,---,0.00,VWS V14.01,2013-08-13 12:34:00,
2013-08-13 07:39:00,74.2,73.0,29.97,ESE,112,0.0,0.0,96,0.00,,---,0.00,VWS V14.01,2013-08-13 12:39:00,
2013-08-13 07:44:00,74.2,73.0,29.97,SSE,158,0.0,0.0,96,0.00,,---,0.00,VWS V14.01,2013-08-13 12:44:00,
2013-08-13 07:49:00,74.4,73.2,29.97,SSE,158,0.0,0.0,96,0.00,,---,0.00,VWS V14.01,2013-08-13 12:49:00,
2013-08-13 07:54:00,74.8,73.6,29.97,SSE,158,0.0,0.0,96,0.00,,---,0.00,VWS V14.01,2013-08-13 12:54:00,
2013-08-13 07:59:00,74.9,73.7,29.97,SSE,158,0.0,0.0,96,0.00,,---,0.00,VWS V14.01,2013-08-13 12:59:00,
2013-08-13 08:04:00,75.1,73.9,29.97,SSE,158,0.0,0.0,96,0.00,,---,0.00,VWS V14.01,2013-08-13 13:04:00,
2013-08-13 08:09:00,75.5,74.3,29.97,SSE,158,0.0,0.0,96,0.00,,---,0.00,VWS V14.01,2013-08-13 13:09:00,
2013-08-13 08:14:00,75.8,74.6,29.97,SSE,158,0.0,0.0,96,0.00,,---,0.00,VWS V14.01,2013-08-13 13:14:00,
2013-08-13 08:19:00,76.0,74.8,29.97,WSW,248,0.0,0.0,96,0.00,,---,0.00,VWS V14.01,2013-08-13 13:19:00,
2013-08-13 08:24:00,76.4,75.2,29.97,WSW,248,0.0,0.0,96,0.00,,---,0.00,VWS V14.01,2013-08-13 13:24:00,
2013-08-13 08:29:00,76.9,75.7,29.97,WSW,248,0.0,0.0,96,0.00,,---,0.00,VWS V14.01,2013-08-13 13:29:00,
2013-08-13 08:34:00,77.3,76.1,29.97,NNW,338,0.0,0.0,96,0.00,,---,0.00,VWS V14.01,2013-08-13 13:34:00,
2013-08-13 08:39:00,78.0,76.5,30.00,ENE,68,0.0,0.0,95,0.00,,---,0.00,VWS V14.01,2013-08-13 13:39:00,
2013-08-13 08:44:00,78.7,77.2,30.00,NW,315,0.0,0.0,95,0.00,,---,0.00,VWS V14.01,2013-08-13 13:44:00,
2013-08-13 08:49:00,79.4,77.9,30.00,SSW,202,1.6,1.6,95,0.00,,---,0.00,VWS V14.01,2013-08-13 13:49:00,
2013-08-13 08:54:00,80.0,77.8,30.00,WSW,248,0.0,0.0,93,0.00,,---,0.00,VWS V14.01,2013-08-13 13:54:00,
2013-08-13 08:59:00,80.3,77.8,30.00,WNW,292,2.2,2.2,92,0.00,,---,0.00,VWS V14.01,2013-08-13 13:59:00,
2013-08-13 09:04:00,80.9,77.3,30.00,WNW,292,0.0,0.0,89,0.00,,---,0.00,VWS V14.01,2013-08-13 14:04:00,
2013-08-13 09:09:00,81.2,77.0,30.00,WNW,292,4.0,4.0,87,0.00,,---,0.00,VWS V14.01,2013-08-13 14:09:00,
2013-08-13 09:14:00,82.0,77.0,30.00,NNW,338,2.0,2.5,85,0.00,,---,0.00,VWS V14.01,2013-08-13 14:14:00,
2013-08-13 09:19:00,82.3,76.3,30.00,WNW,292,2.7,2.7,82,0.00,,---,0.00,VWS V14.01,2013-08-13 14:19:00,
2013-08-13 09:24:00,82.9,75.7,30.00,WSW,248,1.3,2.9,79,0.00,,---,0.00,VWS V14.01,2013-08-13 14:24:00,
2013-08-13 09:29:00,83.4,74.7,30.00,WNW,292,2.5,2.9,75,0.00,,---,0.00,VWS V14.01,2013-08-13 14:29:00,
2013-08-13 09:34:00,83.8,74.6,30.00,NNW,338,0.0,0.0,74,0.00,,---,0.00,VWS V14.01,2013-08-13 14:34:00,
2013-08-13 09:39:00,84.1,74.5,30.00,NW,315,2.7,2.7,73,0.00,,---,0.00,VWS V14.01,2013-08-13 14:39:00,
2013-08-13 09:44:00,84.5,74.1,30.00,NNW,338,2.9,3.4,71,0.00,,---,0.00,VWS V14.01,2013-08-13 14:44:00,
2013-08-13 09:49:00,84.8,73.5,30.00,North,0,3.6,3.6,69,0.00,,---,0.00,VWS V14.01,2013-08-13 14:49:00,
2013-08-13 09:54:00,85.0,73.7,30.00,WNW,292,4.3,4.3,69,0.00,,---,0.00,VWS V14.01,2013-08-13 14:54:00,
2013-08-13 09:59:00,85.2,73.4,30.00,NW,315,0.0,2.9,68,0.00,,---,0.00,VWS V14.01,2013-08-13 14:59:00,
2013-08-13 10:04:00,85.6,73.3,30.00,NW,315,1.3,2.7,67,0.00,,---,0.00,VWS V14.01,2013-08-13 15:04:00,
2013-08-13 10:09:00,85.9,73.7,30.00,West,270,0.0,2.0,67,0.00,,---,0.00,VWS V14.01,2013-08-13 15:09:00,
2013-08-13 10:14:00,86.5,73.8,30.00,West,270,2.7,2.7,66,0.00,,---,0.00,VWS V14.01,2013-08-13 15:14:00,
2013-08-13 10:19:00,86.6,72.1,30.00,NW,315,2.7,4.3,62,0.00,,---,0.00,VWS V14.01,2013-08-13 15:19:00,
2013-08-13 10:24:00,86.8,73.7,30.00,West,270,0.0,0.0,65,0.00,,---,0.00,VWS V14.01,2013-08-13 15:24:00,
2013-08-13 10:29:00,86.6,73.0,30.00,NNW,338,2.7,3.6,64,0.00,,---,0.00,VWS V14.01,2013-08-13 15:29:00,
2013-08-13 10:34:00,86.5,72.4,30.00,West,270,3.4,4.9,63,0.00,,---,0.00,VWS V14.01,2013-08-13 15:34:00,
2013-08-13 10:39:00,87.2,74.0,29.97,WNW,292,2.2,4.0,65,0.00,,---,0.00,VWS V14.01,2013-08-13 15:39:00,
2013-08-13 10:44:00,87.4,73.7,29.97,WSW,248,0.0,0.9,64,0.00,,---,0.00,VWS V14.01,2013-08-13 15:44:00,
2013-08-13 10:49:00,87.0,72.9,29.97,NNW,338,3.8,5.4,63,0.00,,---,0.00,VWS V14.01,2013-08-13 15:49:00,
2013-08-13 10:55:00,86.5,72.8,30.00,NNW,338,2.7,2.7,64,0.00,,---,0.00,VWS V14.01,2013-08-13 15:55:00,
2013-08-13 11:00:00,85.7,72.2,30.00,North,0,4.3,5.8,64,0.00,,---,0.00,VWS V14.01,2013-08-13 16:00:00,
2013-08-13 11:04:00,83.8,72.1,30.00,WNW,292,0.9,2.5,68,0.00,,---,0.00,VWS V14.01,2013-08-13 16:04:00,
2013-08-13 11:05:00,83.8,72.1,30.00,WNW,292,2.2,2.2,68,0.00,,---,0.00,VWS V14.01,2013-08-13 16:05:00,
2013-08-13 11:10:00,82.1,72.2,30.00,WNW,292,0.0,0.0,72,0.00,,---,0.00,VWS V14.01,2013-08-13 16:10:00,
2013-08-13 11:15:00,81.6,72.9,30.00,WNW,292,0.0,0.0,75,0.00,,---,0.00,VWS V14.01,2013-08-13 16:15:00,
2013-08-13 11:20:00,81.2,73.3,30.00,WNW,292,0.0,0.0,77,0.00,,---,0.00,VWS V14.01,2013-08-13 16:20:00,
2013-08-13 11:25:00,80.9,73.8,30.00,NNW,338,0.0,0.0,79,0.00,,---,0.00,VWS V14.01,2013-08-13 16:25:00,
2013-08-13 11:30:00,80.5,74.2,30.00,NW,315,0.0,1.1,81,0.00,,---,0.00,VWS V14.01,2013-08-13 16:30:00,
2013-08-13 11:35:00,80.0,74.4,30.00,WNW,292,0.0,0.0,83,0.09,,---,0.09,VWS V14.01,2013-08-13 16:35:00,
2013-08-13 11:40:00,79.1,73.8,29.97,NNE,22,0.0,0.0,84,0.21,,---,0.21,VWS V14.01,2013-08-13 16:40:00,
2013-08-13 11:45:00,78.7,74.2,29.97,North,0,0.0,0.0,86,0.21,,---,0.21,VWS V14.01,2013-08-13 16:45:00,
2013-08-13 11:50:00,78.5,74.0,29.97,North,0,0.0,0.0,86,0.21,,---,0.21,VWS V14.01,2013-08-13 16:50:00,
2013-08-13 11:55:00,78.5,74.7,29.97,North,0,0.0,0.0,88,0.21,,---,0.21,VWS V14.01,2013-08-13 16:55:00,
2013-08-13 12:00:00,78.7,74.9,29.97,North,0,0.0,0.0,88,0.21,,---,0.21,VWS V14.01,2013-08-13 17:00:00,
2013-08-13 12:05:00,78.9,75.4,29.97,NNW,338,0.0,0.0,89,0.21,,---,0.21,VWS V14.01,2013-08-13 17:05:00,
2013-08-13 12:12:00,79.8,76.6,29.94,SSW,202,0.0,0.0,90,0.21,,---,0.21,VWS V14.01,2013-08-13 17:12:00,
2013-08-13 12:17:00,80.3,77.1,29.94,WSW,248,0.0,0.0,90,0.21,,---,0.21,VWS V14.01,2013-08-13 17:17:00,
2013-08-13 12:22:00,81.2,78.0,29.94,SSE,158,0.0,0.0,90,0.21,,---,0.21,VWS V14.01,2013-08-13 17:22:00,
2013-08-13 12:27:00,81.8,78.6,29.94,SSE,158,0.0,0.0,90,0.21,,---,0.21,VWS V14.01,2013-08-13 17:27:00,
2013-08-13 12:32:00,82.3,79.1,29.94,SE,135,0.0,0.0,90,0.21,,---,0.21,VWS V14.01,2013-08-13 17:32:00,
2013-08-13 12:37:00,82.9,79.6,29.94,SSE,158,0.9,2.5,90,0.04,,---,0.21,VWS V14.01,2013-08-13 17:37:00,
2013-08-13 12:42:00,83.4,79.5,29.94,SSE,158,0.0,0.0,88,0.00,,---,0.21,VWS V14.01,2013-08-13 17:42:00,
2013-08-13 12:47:00,84.1,79.8,29.94,SW,225,0.0,0.9,87,0.00,,---,0.21,VWS V14.01,2013-08-13 17:47:00,
2013-08-13 12:52:00,84.7,78.2,29.94,WSW,248,5.4,5.4,81,0.00,,---,0.21,VWS V14.01,2013-08-13 17:52:00,
2013-08-13 12:57:00,81.8,70.6,29.94,NW,315,3.4,4.3,69,0.00,,---,0.21,VWS V14.01,2013-08-13 17:57:00,
2013-08-13 13:02:00,79.8,70.0,29.94,North,0,3.6,3.6,72,0.00,,---,0.21,VWS V14.01,2013-08-13 18:02:00,
2013-08-13 13:08:00,78.4,70.9,29.94,NNW,338,6.7,6.7,78,0.00,,---,0.21,VWS V14.01,2013-08-13 18:08:00,
2013-08-13 13:13:00,77.3,70.6,29.94,WSW,248,2.0,2.0,80,0.08,,---,0.29,VWS V14.01,2013-08-13 18:13:00,
2013-08-13 13:18:00,76.9,70.7,29.94,WNW,292,0.0,0.0,81,0.12,,---,0.33,VWS V14.01,2013-08-13 18:18:00,
2013-08-13 13:23:00,76.4,70.8,29.94,NW,315,0.0,0.0,83,0.17,,---,0.38,VWS V14.01,2013-08-13 18:23:00,
2013-08-13 13:28:00,76.2,71.7,29.94,North,0,0.0,0.0,86,0.17,,---,0.38,VWS V14.01,2013-08-13 18:28:00,
2013-08-13 13:33:00,76.2,72.4,29.94,NNW,338,0.0,0.0,88,0.17,,---,0.38,VWS V14.01,2013-08-13 18:33:00,
2013-08-13 13:37:00,76.2,72.7,29.94,ENE,68,0.0,0.0,89,0.17,,---,0.38,VWS V14.01,2013-08-13 18:37:00,
2013-08-13 13:43:00,76.2,72.7,29.94,ENE,68,0.0,0.0,89,0.17,,---,0.38,VWS V14.01,2013-08-13 18:43:00,
2013-08-13 13:48:00,76.2,73.7,29.94,NNE,22,0.0,0.0,92,0.17,,---,0.38,VWS V14.01,2013-08-13 18:48:00,
2013-08-13 13:52:00,76.4,73.9,29.94,NW,315,0.0,0.0,92,0.17,,---,0.38,VWS V14.01,2013-08-13 18:52:00,
2013-08-13 13:57:00,76.6,74.4,29.94,NNE,22,0.0,0.0,93,0.17,,---,0.38,VWS V14.01,2013-08-13 18:57:00,
2013-08-13 14:02:00,76.6,74.4,29.94,NNE,22,0.0,0.0,93,0.17,,---,0.38,VWS V14.01,2013-08-13 19:02:00,
2013-08-13 14:08:00,76.7,74.6,29.94,NNE,22,0.0,0.0,93,0.17,,---,0.38,VWS V14.01,2013-08-13 19:08:00,
2013-08-13 14:13:00,76.7,74.9,29.91,North,0,0.0,0.0,94,0.09,,---,0.38,VWS V14.01,2013-08-13 19:13:00,
2013-08-13 14:18:00,76.9,75.4,29.91,NW,315,2.0,2.0,95,0.09,,---,0.42,VWS V14.01,2013-08-13 19:18:00,
2013-08-13 14:23:00,76.9,75.7,29.91,NNW,338,7.4,7.4,96,0.21,,---,0.59,VWS V14.01,2013-08-13 19:23:00,
2013-08-13 14:28:00,75.3,73.5,29.97,NNW,338,11.0,11.0,94,0.83,,---,1.21,VWS V14.01,2013-08-13 19:28:00,
2013-08-13 14:33:00,74.6,72.4,29.97,NNW,338,0.0,2.0,93,1.08,,---,1.46,VWS V14.01,2013-08-13 19:33:00,
2013-08-13 14:38:00,74.4,72.6,29.94,NW,315,0.0,0.0,94,1.12,,---,1.50,VWS V14.01,2013-08-13 19:38:00,
2013-08-13 14:43:00,74.4,72.6,29.94,NW,315,0.0,0.0,94,1.12,,---,1.50,VWS V14.01,2013-08-13 19:43:00,
2013-08-13 14:48:00,74.4,72.9,29.94,NW,315,0.0,0.0,95,1.12,,---,1.50,VWS V14.01,2013-08-13 19:48:00,
2013-08-13 14:53:00,74.4,72.9,29.91,ENE,68,0.0,0.0,95,1.12,,---,1.50,VWS V14.01,2013-08-13 19:53:00,
2013-08-13 14:58:00,74.4,72.9,29.91,ENE,68,0.0,0.0,95,1.16,,---,1.54,VWS V14.01,2013-08-13 19:58:00,
2013-08-13 15:03:00,74.4,72.9,29.91,ENE,68,0.0,0.0,95,1.16,,---,1.54,VWS V14.01,2013-08-13 20:03:00,
2013-08-13 15:08:00,74.6,73.4,29.94,ENE,68,0.0,0.0,96,1.16,,---,1.54,VWS V14.01,2013-08-13 20:08:00,
2013-08-13 15:13:00,74.6,73.4,29.94,ESE,112,0.0,0.0,96,1.16,,---,1.54,VWS V14.01,2013-08-13 20:13:00,
2013-08-13 15:18:00,74.6,73.4,29.94,WSW,248,0.0,0.0,96,1.12,,---,1.54,VWS V14.01,2013-08-13 20:18:00,
2013-08-13 15:23:00,74.6,73.4,29.94,WNW,292,0.0,0.0,96,0.95,,---,1.54,VWS V14.01,2013-08-13 20:23:00,
2013-08-13 15:28:00,74.6,73.4,29.94,NNW,338,0.0,0.0,96,0.33,,---,1.54,VWS V14.01,2013-08-13 20:28:00,
2013-08-13 15:33:00,74.6,73.4,29.94,NNE,22,0.0,0.0,96,0.08,,---,1.54,VWS V14.01,2013-08-13 20:33:00,
2013-08-13 15:38:00,74.6,73.4,29.94,ENE,68,0.0,0.0,96,0.04,,---,1.54,VWS V14.01,2013-08-13 20:38:00,
2013-08-13 15:43:00,74.6,73.4,29.91,ENE,68,0.0,0.0,96,0.04,,---,1.54,VWS V14.01,2013-08-13 20:43:00,
2013-08-13 15:48:00,74.4,73.2,29.91,ENE,68,0.0,0.0,96,0.04,,---,1.54,VWS V14.01,2013-08-13 20:48:00,
2013-08-13 15:53:00,74.4,73.2,29.91,ENE,68,0.0,0.0,96,0.04,,---,1.54,VWS V14.01,2013-08-13 20:53:00,
2013-08-13 15:58:00,74.4,73.2,29.91,ENE,68,0.0,0.0,96,0.00,,---,1.54,VWS V14.01,2013-08-13 20:58:00,
2013-08-13 16:03:00,74.2,73.3,29.91,ENE,68,0.0,0.0,97,0.00,,---,1.54,VWS V14.01,2013-08-13 21:03:00,
2013-08-13 16:08:00,74.2,73.3,29.91,ENE,68,0.0,0.0,97,0.00,,---,1.54,VWS V14.01,2013-08-13 21:08:00,
2013-08-13 16:13:00,74.2,73.3,29.91,ENE,68,0.0,0.0,97,0.00,,---,1.54,VWS V14.01,2013-08-13 21:13:00,
2013-08-13 16:18:00,74.2,73.3,29.91,ENE,68,0.0,0.0,97,0.00,,---,1.54,VWS V14.01,2013-08-13 21:18:00,
2013-08-13 16:23:00,74.2,73.3,29.91,ENE,68,0.0,0.0,97,0.00,,---,1.54,VWS V14.01,2013-08-13 21:23:00,
2013-08-13 16:28:00,74.2,73.3,29.91,ENE,68,0.0,0.0,97,0.00,,---,1.54,VWS V14.01,2013-08-13 21:28:00,
2013-08-13 16:33:00,74.2,73.3,29.91,ENE,68,0.0,0.0,97,0.00,,---,1.54,VWS V14.01,2013-08-13 21:33:00,
2013-08-13 16:38:00,74.2,73.3,29.91,ENE,68,0.0,0.0,97,0.00,,---,1.54,VWS V14.01,2013-08-13 21:38:00,
2013-08-13 16:43:00,74.2,73.3,29.91,ENE,68,0.0,0.0,97,0.00,,---,1.54,VWS V14.01,2013-08-13 21:43:00,
2013-08-13 16:48:00,74.2,73.3,29.91,ENE,68,0.0,0.0,97,0.00,,---,1.54,VWS V14.01,2013-08-13 21:48:00,
2013-08-13 16:53:00,74.2,73.3,29.91,SSW,202,0.0,0.0,97,0.00,,---,1.54,VWS V14.01,2013-08-13 21:53:00,
2013-08-13 16:58:00,74.2,73.3,29.91,SSW,202,0.0,0.0,97,0.00,,---,1.54,VWS V14.01,2013-08-13 21:58:00,
2013-08-13 17:03:00,74.2,73.3,29.91,SSW,202,0.0,0.0,97,0.00,,---,1.54,VWS V14.01,2013-08-13 22:03:00,
2013-08-13 17:08:00,74.4,73.5,29.91,SSW,202,0.0,0.0,97,0.00,,---,1.54,VWS V14.01,2013-08-13 22:08:00,
2013-08-13 17:13:00,74.4,73.5,29.94,SSW,202,0.0,0.0,97,0.00,,---,1.54,VWS V14.01,2013-08-13 22:13:00,
2013-08-13 17:18:00,74.4,73.5,29.94,SSW,202,0.0,0.0,97,0.00,,---,1.54,VWS V14.01,2013-08-13 22:18:00,
2013-08-13 17:23:00,74.4,73.5,29.94,SSW,202,0.0,0.0,97,0.00,,---,1.54,VWS V14.01,2013-08-13 22:23:00,
2013-08-13 17:28:00,74.4,73.5,29.94,SSW,202,0.0,0.0,97,0.00,,---,1.54,VWS V14.01,2013-08-13 22:28:00,
2013-08-13 17:33:00,74.4,73.5,29.94,SSW,202,0.0,0.0,97,0.00,,---,1.54,VWS V14.01,2013-08-13 22:33:00,
2013-08-13 17:38:00,74.4,73.5,29.94,SSW,202,0.0,0.0,97,0.00,,---,1.54,VWS V14.01,2013-08-13 22:38:00,
2013-08-13 17:43:00,74.4,73.5,29.94,SSW,202,0.0,0.0,97,0.00,,---,1.54,VWS V14.01,2013-08-13 22:43:00,
2013-08-13 17:48:00,74.4,73.5,29.94,SSW,202,0.0,0.0,97,0.00,,---,1.54,VWS V14.01,2013-08-13 22:48:00,
2013-08-13 17:53:00,74.4,73.5,29.91,SSW,202,0.0,0.0,97,0.00,,---,1.54,VWS V14.01,2013-08-13 22:53:00,
2013-08-13 17:58:00,74.6,73.7,29.91,SSW,202,0.0,0.0,97,0.00,,---,1.54,VWS V14.01,2013-08-13 22:58:00,
2013-08-13 18:03:00,74.6,73.7,29.91,SSW,202,0.0,0.0,97,0.00,,---,1.54,VWS V14.01,2013-08-13 23:03:00,
2013-08-13 18:08:00,74.6,73.7,29.94,SSW,202,0.0,0.0,97,0.00,,---,1.54,VWS V14.01,2013-08-13 23:08:00,
2013-08-13 18:13:00,74.6,73.7,29.94,SSW,202,0.0,0.0,97,0.00,,---,1.54,VWS V14.01,2013-08-13 23:13:00,
2013-08-13 18:18:00,74.6,73.7,29.94,SSW,202,0.0,0.0,97,0.00,,---,1.54,VWS V14.01,2013-08-13 23:18:00,
2013-08-13 18:23:00,74.6,73.7,29.94,SSW,202,0.0,0.0,97,0.00,,---,1.54,VWS V14.01,2013-08-13 23:23:00,
2013-08-13 18:28:00,74.6,73.7,29.94,SSW,202,0.0,0.0,97,0.00,,---,1.54,VWS V14.01,2013-08-13 23:28:00,
2013-08-13 18:33:00,74.6,73.7,29.94,SSW,202,0.0,0.0,97,0.00,,---,1.54,VWS V14.01,2013-08-13 23:33:00,
2013-08-13 18:38:00,74.6,73.7,29.94,SSW,202,0.0,0.0,97,0.00,,---,1.54,VWS V14.01,2013-08-13 23:38:00,
2013-08-13 18:43:00,74.6,73.7,29.94,SSW,202,0.0,0.0,97,0.00,,---,1.54,VWS V14.01,2013-08-13 23:43:00,
2013-08-13 18:48:00,74.6,73.7,29.94,SSW,202,0.0,0.0,97,0.00,,---,1.54,VWS V14.01,2013-08-13 23:48:00,
2013-08-13 18:53:00,74.6,73.7,29.94,SSW,202,0.0,0.0,97,0.00,,---,1.54,VWS V14.01,2013-08-13 23:53:00,
2013-08-13 18:58:00,74.6,73.7,29.94,SSW,202,0.0,0.0,97,0.00,,---,1.54,VWS V14.01,2013-08-13 23:58:00,
2013-08-13 19:03:00,74.6,73.7,29.94,SSW,202,0.0,0.0,97,0.00,,---,1.54,VWS V14.01,2013-08-14 00:03:00,
2013-08-13 19:08:00,74.6,73.7,29.94,SSW,202,0.0,0.0,97,0.00,,---,1.54,VWS V14.01,2013-08-14 00:08:00,
2013-08-13 19:13:00,74.6,73.7,29.94,SSW,202,0.0,0.0,97,0.00,,---,1.54,VWS V14.01,2013-08-14 00:13:00,
2013-08-13 19:18:00,74.6,73.7,29.94,SSW,202,0.0,0.0,97,0.00,,---,1.54,VWS V14.01,2013-08-14 00:18:00,
2013-08-13 19:23:00,74.6,73.7,29.94,SSW,202,0.0,0.0,97,0.00,,---,1.54,VWS V14.01,2013-08-14 00:23:00,
2013-08-13 19:28:00,74.6,73.7,29.94,SSW,202,0.0,0.0,97,0.00,,---,1.54,VWS V14.01,2013-08-14 00:28:00,
2013-08-13 19:33:00,74.4,73.5,29.94,SSW,202,0.0,0.0,97,0.00,,---,1.54,VWS V14.01,2013-08-14 00:33:00,
2013-08-13 19:38:00,74.4,73.5,29.94,SSW,202,0.0,0.0,97,0.00,,---,1.54,VWS V14.01,2013-08-14 00:38:00,
2013-08-13 19:44:00,74.4,73.5,29.94,SSW,202,0.0,0.0,97,0.00,,---,1.54,VWS V14.01,2013-08-14 00:44:00,
2013-08-13 19:48:00,74.4,73.5,29.94,SSW,202,0.0,0.0,97,0.00,,---,1.54,VWS V14.01,2013-08-14 00:48:00,
2013-08-13 19:54:00,74.4,73.5,29.94,SSW,202,0.0,0.0,97,0.00,,---,1.54,VWS V14.01,2013-08-14 00:54:00,
2013-08-13 19:59:00,74.4,73.5,29.94,SSW,202,0.0,0.0,97,0.00,,---,1.54,VWS V14.01,2013-08-14 00:59:00,
2013-08-13 20:04:00,74.2,73.6,29.94,SSW,202,0.0,0.0,98,0.00,,---,1.54,VWS V14.01,2013-08-14 01:04:00,
2013-08-13 20:09:00,74.2,73.6,29.94,SSW,202,0.0,0.0,98,0.00,,---,1.54,VWS V14.01,2013-08-14 01:09:00,
2013-08-13 20:14:00,74.2,73.6,29.94,SSW,202,0.0,0.0,98,0.00,,---,1.54,VWS V14.01,2013-08-14 01:14:00,
2013-08-13 20:19:00,74.2,73.6,29.94,SSW,202,0.0,0.0,98,0.00,,---,1.54,VWS V14.01,2013-08-14 01:19:00,
2013-08-13 20:24:00,74.2,73.6,29.94,SSW,202,0.0,0.0,98,0.00,,---,1.54,VWS V14.01,2013-08-14 01:24:00,
2013-08-13 20:29:00,74.2,73.6,29.94,SSW,202,0.0,0.0,98,0.00,,---,1.54,VWS V14.01,2013-08-14 01:29:00,
2013-08-13 20:34:00,74.2,73.6,29.94,SSW,202,0.0,0.0,98,0.00,,---,1.54,VWS V14.01,2013-08-14 01:34:00,
2013-08-13 20:39:00,74.2,73.6,29.94,SSW,202,0.0,0.0,98,0.00,,---,1.54,VWS V14.01,2013-08-14 01:39:00,
2013-08-13 20:44:00,74.2,73.6,29.94,SSW,202,0.0,0.0,98,0.00,,---,1.54,VWS V14.01,2013-08-14 01:44:00,
2013-08-13 20:49:00,74.2,73.6,29.94,SSW,202,0.0,0.0,98,0.00,,---,1.54,VWS V14.01,2013-08-14 01:49:00,
2013-08-13 20:54:00,74.2,73.6,29.94,SSW,202,0.0,0.0,98,0.00,,---,1.54,VWS V14.01,2013-08-14 01:54:00,
2013-08-13 20:59:00,74.2,73.6,29.94,SSW,202,0.0,0.0,98,0.00,,---,1.54,VWS V14.01,2013-08-14 01:59:00,
2013-08-13 21:04:00,74.2,73.6,29.94,SSW,202,0.0,0.0,98,0.00,,---,1.54,VWS V14.01,2013-08-14 02:04:00,
2013-08-13 21:09:00,74.2,73.6,29.94,SSW,202,0.0,0.0,98,0.00,,---,1.54,VWS V14.01,2013-08-14 02:09:00,
2013-08-13 21:14:00,74.6,74.0,29.94,SSW,202,0.0,0.0,98,0.00,,---,1.54,VWS V14.01,2013-08-14 02:14:00,
2013-08-13 21:19:00,74.6,74.0,29.94,SSW,202,0.0,0.0,98,0.00,,---,1.54,VWS V14.01,2013-08-14 02:19:00,
2013-08-13 21:24:00,74.6,74.0,29.94,SSW,202,0.0,0.0,98,0.00,,---,1.54,VWS V14.01,2013-08-14 02:24:00,
2013-08-13 21:29:00,74.8,74.2,29.94,SSW,202,0.0,0.0,98,0.00,,---,1.54,VWS V14.01,2013-08-14 02:29:00,
2013-08-13 21:34:00,74.6,74.0,29.94,SSW,202,0.0,0.0,98,0.00,,---,1.54,VWS V14.01,2013-08-14 02:34:00,
2013-08-13 21:39:00,74.6,74.0,29.91,SSW,202,0.0,0.0,98,0.00,,---,1.54,VWS V14.01,2013-08-14 02:39:00,
2013-08-13 21:44:00,74.6,74.0,29.91,SSW,202,0.0,0.0,98,0.00,,---,1.54,VWS V14.01,2013-08-14 02:44:00,
2013-08-13 21:49:00,74.6,74.0,29.91,SSW,202,0.0,0.0,98,0.00,,---,1.54,VWS V14.01,2013-08-14 02:49:00,
2013-08-13 21:54:00,74.6,74.0,29.91,SSW,202,0.0,0.0,98,0.00,,---,1.54,VWS V14.01,2013-08-14 02:54:00,
2013-08-13 21:59:00,74.4,73.8,29.91,SSW,202,0.0,0.0,98,0.00,,---,1.54,VWS V14.01,2013-08-14 02:59:00,
2013-08-13 22:04:00,74.4,73.8,29.91,SSW,202,0.0,0.0,98,0.00,,---,1.54,VWS V14.01,2013-08-14 03:04:00,
2013-08-13 22:09:00,74.4,73.8,29.91,SSW,202,0.0,0.0,98,0.00,,---,1.54,VWS V14.01,2013-08-14 03:09:00,
2013-08-13 22:14:00,74.2,73.6,29.91,SSW,202,0.0,0.0,98,0.00,,---,1.54,VWS V14.01,2013-08-14 03:14:00,
2013-08-13 22:19:00,74.2,73.6,29.91,SSW,202,0.0,0.0,98,0.00,,---,1.54,VWS V14.01,2013-08-14 03:19:00,
2013-08-13 22:24:00,74.2,73.6,29.91,SSW,202,0.0,0.0,98,0.00,,---,1.54,VWS V14.01,2013-08-14 03:24:00,
2013-08-13 22:29:00,74.2,73.6,29.91,SSW,202,0.0,0.0,98,0.00,,---,1.54,VWS V14.01,2013-08-14 03:29:00,
2013-08-13 22:34:00,74.2,73.6,29.91,SSW,202,0.0,0.0,98,0.00,,---,1.54,VWS V14.01,2013-08-14 03:34:00,
2013-08-13 22:39:00,74.2,73.6,29.91,SSW,202,0.0,0.0,98,0.00,,---,1.54,VWS V14.01,2013-08-14 03:39:00,
2013-08-13 22:44:00,74.2,73.6,29.91,SSW,202,0.0,0.0,98,0.00,,---,1.54,VWS V14.01,2013-08-14 03:44:00,
2013-08-13 22:49:00,74.0,73.4,29.91,SSW,202,0.0,0.0,98,0.00,,---,1.54,VWS V14.01,2013-08-14 03:49:00,
2013-08-13 22:54:00,74.0,73.4,29.91,SSW,202,0.0,0.0,98,0.00,,---,1.54,VWS V14.01,2013-08-14 03:54:00,
2013-08-13 22:59:00,74.0,73.4,29.91,SSW,202,0.0,0.0,98,0.00,,---,1.54,VWS V14.01,2013-08-14 03:59:00,
2013-08-13 23:01:00,74.0,73.4,29.91,SSW,202,0.0,0.0,98,0.00,,---,1.54,VWS V14.01,2013-08-14 04:01:00,
2013-08-13 23:02:00,74.2,73.6,29.91,SSW,202,0.0,0.0,98,0.00,,---,1.54,VWS V14.01,2013-08-14 04:02:00,
2013-08-13 23:07:00,74.0,73.4,29.91,SSW,202,0.0,0.0,98,0.00,,---,1.54,VWS V14.01,2013-08-14 04:07:00,
2013-08-13 23:12:00,74.2,73.6,29.91,SSW,202,0.0,0.0,98,0.00,,---,1.54,VWS V14.01,2013-08-14 04:12:00,
2013-08-13 23:17:00,74.2,73.6,29.91,SSW,202,0.0,0.0,98,0.00,,---,1.54,VWS V14.01,2013-08-14 04:17:00,
2013-08-13 23:22:00,74.2,73.6,29.91,SSW,202,0.0,0.0,98,0.00,,---,1.54,VWS V14.01,2013-08-14 04:22:00,
2013-08-13 23:27:00,74.2,73.6,29.91,SSW,202,0.0,0.0,98,0.00,,---,1.54,VWS V14.01,2013-08-14 04:27:00,
2013-08-13 23:32:00,74.2,73.6,29.91,SSW,202,0.0,0.0,98,0.00,,---,1.54,VWS V14.01,2013-08-14 04:32:00,
2013-08-13 23:37:00,74.2,73.6,29.91,SSW,202,0.0,0.0,98,0.00,,---,1.54,VWS V14.01,2013-08-14 04:37:00,
2013-08-13 23:42:00,74.2,73.6,29.91,SSW,202,0.0,0.0,98,0.00,,---,1.54,VWS V14.01,2013-08-14 04:42:00,
2013-08-13 23:47:00,74.2,73.6,29.91,SSW,202,0.0,0.0,98,0.00,,---,1.54,VWS V14.01,2013-08-14 04:47:00,
2013-08-13 23:52:00,74.2,73.6,29.91,SSW,202,0.0,0.0,98,0.00,,---,1.54,VWS V14.01,2013-08-14 04:52:00,
2013-08-13 23:57:00,74.2,73.6,29.91,SSW,202,0.0,0.0,98,0.00,,---,1.54,VWS V14.01,2013-08-14 04:57:00,